Weather in Kazanka

Ukraine / Mykolaiv District     47°50′17″N   32°49′34″E
В апреле 2022 года жителям России запретили посещать сайт meteo.paraplan.net по решению Генеральной прокуратуры. Аудитория сайта уменьшилась в 10 раз. Владельцы сайта не видят смысла в поддержке погодного сервера в таких условиях. Сайт будет закрыт в октябре.
temp.,
°C
wind,
m/s
gust,
m/s
humid.,
%
clouds,
%
prec.,
mm/h
press.,
hPa
HPBL,
m
30 september, fri
fri3000:00+18sse51370100 0.4 1011325
03:00+17sse51185100 2.8 1011311
06:00+16sse4895100 12.6 1012209
09:00+19sse5108516 16.8 1012415
12:00+24ssw6759100 0.1 10141138
15:00+26sw674361 0.1 10132028
18:00+23ssw485047 0.0 1014180
21:00+19sw486515 0.0 1016143
1 october, sat
sat100:00+18sw36770 0.0 1017104
03:00+17ssw348373 0.0 101764
06:00+16ssw468729 0.0 1018115
09:00+20sw477285 0.0 1018243
12:00+25sw4545100 0.0 1018727
15:00+26wsw4539100 0.0 10161298
18:00+23w1147100 0.0 101511
21:00+20ssw3770100 0.0 1015124
2 october, sun
sun200:00+18s3781100 0.0 1013151
03:00+18s41082100 0.0 1011235
06:00+18s2384100 0.6 100970
09:00+17se4989100 2.3 1008289
12:00+18sw61095100 8.3 1006559
15:00+17w61091100 20.7 1004561
18:00+16wnw51084100 1.5 1004593
21:00+14nw8128496 1.6 1005662
3 october, mon
mon300:00+13nw81384100 0.0 1006786
03:00+12nw71280100 0.1 1007838
06:00+12wnw6118370 0.0 1008677
09:00+12wnw7107688 0.4 1009754
12:00+14wnw81066100 0.3 10101276
15:00+14wnw9116176 0.5 10111516
18:00+12wnw6107578 0.0 1013887
21:00+10w37836 0.0 1015185
4 october, tue
tue400:00+9w38856 0.0 1016198
03:00+10wsw3775100 0.0 1016244
06:00+10sw3678100 0.0 1016204
09:00+12sw356690 0.0 1017281
12:00+13wsw6760100 0.0 10171092
15:00+13wsw5970100 0.0 1018793
18:00+12sw397492 0.0 1018544
21:00+10sw3377100 0.0 101938